{"data":{"norad_id":49431,"epoch":"2026-05-25T00:29:31.638912Z","epoch_age_seconds":70347,"freshness":"FRESH","line1":"1 49431U 21104Z   26145.02050508  .00000763  00000+0  66015-4 0  9994","line2":"2 49431  53.2157 246.6389 0001233  80.6541 279.4591 15.08840155250154","mean_motion":15.08840155,"eccentricity":0.0001233,"inclination_deg":53.2157,"raan_deg":246.6389,"arg_perigee_deg":80.6541,"mean_anomaly_deg":279.4591,"bstar":6.6015e-5,"rev_number":25015,"period_min":95.437544873665,"perigee_km":538.88994059761,"apogee_km":540.5958897847,"semimajor_km":6917.8799151912,"source":"CELESTRAK","updated_at":"2026-05-25T13:38:16.799300Z"}}